map of OHD home
Great Circle Mapper logo
OHD - Airport
Location
City:  Ohrid, Republic of Macedonia
Name:Ohrid St. Paul the Apostle Airport
ICAO / IATA:LWOH / OHD

Details
Type:Airport (Aerodrome, Airfield)
Use:Public/Civil
Latitude:4110'48"N (41.179956)
Longitude:2044'32"E (20.742325)
Datum:WGS 1984
Elevation:2313 ft (705 m)
Runways:1
Longest:8366 × 140 ft (2550 × 42.5 m), paved

Time
Time Zone:UTC+1 (DST+2)
Local Time:

Weather
METAR:LWOH 221730Z 16012KT 9999 FEW020 SCT030 BKN040 16/12 Q1001
TAF:LWOH 230230Z 2303/2403 28010KT 9999 BKN040 OVC070
TEMPO 2300/2314 RA SCT015 BKN030 OVC050
TEMPO 2306/2318 34015KT

Related Locations
Nearby:
Farthest:CHT: 11545 mi / 18580 km
Waitangi [Tuuta], Chatham Islands, NZ

Find:

   beyond  
but within

Other Information
Maps:
NOTAMs:
Links:
Sources:

  
flag of Republic of Macedonia   

Sectional Chart

Flight Planning
at skyvector.com

Satellite Image

Google Maps Satellite View

 

Copyright © 2004-2014 Karl L. Swartz. All rights reserved.
The Great Circle Mapper name and logo are trademarks of the Great Circle Mapper.
All other trademarks mentioned herein belong to their respective owners.
Please see credits for attibutions and further copyright information.

  Follow gcmap on Facebook Follow gcmap on Twitter

hCard Microformat

Geo Microformat